Stations météo

réclame
Mon MeteoGroup
Ouessant, France (7100): Température de l'air & dewpoint: 19.03.2019 12:00:00 - 25.03.2019 12:00:00 (CET)Ouessant, France (7100): Vitesse du vent & gusts: 19.03.2019 12:00:00 - 25.03.2019 12:00:00 (CET)Ouessant, France (7100): Direction du vent: 19.03.2019 12:00:00 - 25.03.2019 12:00:00 (CET)Ouessant, France (7100): reduced air pressure: 19.03.2019 12:00:00 - 25.03.2019 12:00:00 (CET)Ouessant, France (7100): visibility: 19.03.2019 12:00:00 - 25.03.2019 12:00:00 (CET)Ouessant, France (7100): Quantités de précipitations: 19.03.2019 12:00:00 - 25.03.2019 12:00:00 (CET)
Date & Time tt [°C] td [°C] ff [km/h] ff [knt] fx [km/h] fx [knt] dd ppp [hPa] vv [km] rr [mm]
25.03.2019 12:00:00 - - - - - - - - - -
25.03.2019 11:00:00 11,1 6,6 32 17 44 24 NNE 1034,5 - 0,0
25.03.2019 10:00:00 10,6 7,3 28 15 48 26 NNE 1034,0 15 0,0
25.03.2019 09:00:00 9,9 7,0 33 18 44 24 N 1033,7 - 0,0
25.03.2019 08:00:00 9,2 6,5 34 18 50 27 N 1033,1 - 0,0
25.03.2019 07:00:00 9,1 5,8 34 18 47 25 N 1032,5 20 0,0
25.03.2019 06:00:00 9,0 5,9 37 20 49 26 N 1032,2 - 0,0
25.03.2019 05:00:00 8,9 6,2 34 18 52 28 N 1032,3 - 0,0
25.03.2019 04:00:00 8,7 5,6 37 20 53 29 N 1032,5 18 0,0
25.03.2019 03:00:00 8,5 5,4 36 19 50 27 N 1032,6 - 0,0
25.03.2019 02:00:00 8,5 4,9 32 17 49 26 N 1032,9 - 0,0
25.03.2019 01:00:00 8,5 4,3 37 20 49 27 N 1033,1 18 0,0
25.03.2019 00:00:00 8,4 4,2 32 18 45 24 N 1033,2 - 0,0
24.03.2019 23:00:00 8,7 4,7 31 17 45 24 N 1033,3 - 0,0
24.03.2019 22:00:00 9,1 5,1 30 16 42 23 N 1033,3 20 0,0
24.03.2019 21:00:00 9,6 5,6 27 15 37 20 N 1032,8 - 0,0
24.03.2019 20:00:00 9,7 6,6 24 13 36 20 N 1032,8 - 0,0
24.03.2019 19:00:00 10,0 7,4 20 11 29 16 N 1032,5 15 0,0
24.03.2019 18:00:00 10,3 7,2 22 12 39 21 NNE 1032,3 - 0,0
24.03.2019 17:00:00 11,3 8,5 21 11 33 18 NNE 1031,8 - 0,0
24.03.2019 16:00:00 11,9 8,6 24 13 31 17 NNE 1031,9 18 0,0
24.03.2019 15:00:00 12,4 8,7 25 13 35 19 NNE 1032,0 - 0,0
24.03.2019 14:00:00 12,7 9,1 25 13 36 19 NNE 1032,2 - 0,0
24.03.2019 13:00:00 12,2 9,0 23 12 32 17 NNE 1032,2 80 0,0
24.03.2019 12:00:00 12,2 9,6 17 9 26 14 NNE 1032,0 - 0,0
24.03.2019 11:00:00 11,2 9,3 22 12 32 17 NE 1031,9 - 0,0
24.03.2019 10:00:00 10,3 8,7 21 11 31 17 NNE 1032,0 6 0,0
24.03.2019 09:00:00 10,0 8,6 22 12 29 16 NNE 1031,5 - 0,0
24.03.2019 08:00:00 9,2 8,4 17 9 21 11 NNE 1030,8 - 0,2
24.03.2019 07:00:00 8,8 8,0 16 9 26 14 E 1029,8 8 0,0
24.03.2019 06:00:00 9,1 8,2 19 10 29 16 ENE 1029,6 - 0,0
24.03.2019 05:00:00 9,3 8,1 22 12 29 15 ENE 1029,7 - 0,0
24.03.2019 04:00:00 9,2 7,8 21 11 29 16 NE 1029,9 10 0,0
24.03.2019 03:00:00 9,5 7,9 25 13 32 17 ENE 1029,6 - 0,0
24.03.2019 02:00:00 9,6 8,0 23 12 34 19 ENE 1029,6 - 0,0
24.03.2019 01:00:00 9,8 8,6 28 15 39 21 E 1029,5 6 0,0
24.03.2019 00:00:00 9,9 9,1 29 16 43 23 ENE 1029,6 - 0,0
23.03.2019 23:00:00 9,9 8,8 34 18 49 27 ENE 1029,5 - 0,0
23.03.2019 22:00:00 9,9 8,7 32 18 49 26 ENE 1029,6 6 0,0
23.03.2019 21:00:00 10,1 8,4 32 17 47 26 ENE 1029,4 - 0,0
23.03.2019 20:00:00 10,2 8,0 32 18 48 26 ENE 1029,0 - 0,0
23.03.2019 19:00:00 10,7 7,9 32 17 42 23 ENE 1028,4 - 0,0
23.03.2019 18:00:00 11,6 8,1 28 15 46 25 NE 1028,2 - 0,0
23.03.2019 17:00:00 12,2 8,8 28 15 42 23 NE 1028,4 - 0,0
23.03.2019 16:00:00 12,4 9,2 28 15 42 23 NE 1028,6 9 0,0
23.03.2019 15:00:00 12,9 9,3 24 13 36 19 NE 1029,0 - 0,0
23.03.2019 14:00:00 12,6 9,2 24 13 34 19 NNE 1029,4 - 0,0
23.03.2019 13:00:00 12,1 8,4 26 14 38 20 ENE 1029,7 8 0,0
23.03.2019 12:00:00 12,2 9,2 24 13 35 19 ENE 1030,0 - 0,0
23.03.2019 11:00:00 11,4 9,1 18 10 25 13 NE 1030,3 - 0,0
23.03.2019 10:00:00 10,5 8,9 17 9 25 13 ENE 1030,6 8 0,0
23.03.2019 09:00:00 10,7 8,8 16 9 23 13 ENE 1030,3 - 0,0
23.03.2019 08:00:00 9,7 8,9 16 9 24 13 ENE 1029,8 - 0,0
23.03.2019 07:00:00 9,3 8,7 16 9 23 12 ENE 1029,4 6 0,0
23.03.2019 06:00:00 9,2 8,4 16 8 20 11 ENE 1029,4 - 0,2
23.03.2019 05:00:00 9,0 8,1 14 8 19 11 NNE 1029,3 - 0,0
23.03.2019 04:00:00 9,0 8,2 12 7 17 9 N 1029,4 - 0,0
23.03.2019 03:00:00 8,3 7,7 10 6 19 10 NNE 1029,3 - 0,0
23.03.2019 02:00:00 8,9 8,4 16 9 24 13 E 1029,6 - 0,0
23.03.2019 01:00:00 9,1 8,5 16 9 22 12 E 1029,4 8 0,0
23.03.2019 00:00:00 9,2 8,6 17 9 21 11 E 1029,7 - 0,0
22.03.2019 23:00:00 9,4 9,3 9 5 15 8 ENE 1029,8 - 0,0
22.03.2019 22:00:00 9,2 8,7 9 5 13 7 NE 1029,4 8 0,0
22.03.2019 21:00:00 9,4 9,3 5 3 15 8 N 1029,1 - 0,0
22.03.2019 20:00:00 8,5 8,1 12 7 14 8 NW 1028,9 - 0,0
22.03.2019 19:00:00 9,8 8,7 10 6 22 12 NW 1028,3 6 0,0
22.03.2019 18:00:00 10,7 9,3 12 7 21 11 WNW 1027,8 - 0,0
22.03.2019 17:00:00 11,1 9,4 18 10 23 13 WNW 1027,9 - 0,0
22.03.2019 16:00:00 13,7 10,9 14 8 25 14 W 1028,1 - 0,0
22.03.2019 15:00:00 13,8 10,4 16 9 26 14 SSW 1028,1 - 0,0
22.03.2019 14:00:00 13,8 10,0 16 8 24 13 SSW 1028,3 - 0,0
22.03.2019 13:00:00 13,2 9,8 16 9 25 14 S 1028,6 15 0,0
22.03.2019 12:00:00 12,6 9,6 10 5 22 12 SSE 1028,8 - 0,0
22.03.2019 11:00:00 11,9 9,1 8 5 22 12 SSE 1028,8 - 0,0
22.03.2019 10:00:00 11,3 8,7 10 6 24 13 SSE 1028,7 12 0,0
22.03.2019 09:00:00 10,3 8,6 13 7 25 14 SSE 1028,6 - 0,0
22.03.2019 08:00:00 8,9 7,8 14 8 20 11 SE 1028,6 - 0,0
22.03.2019 07:00:00 8,9 7,5 11 6 24 13 SE 1028,2 15 0,0
22.03.2019 06:00:00 9,0 7,6 11 6 24 13 SSE 1028,1 - 0,0
22.03.2019 05:00:00 9,0 7,6 13 7 23 13 SE 1028,4 - 0,0
22.03.2019 04:00:00 9,5 7,6 18 10 27 15 SE 1029,0 - 0,0
22.03.2019 03:00:00 10,4 8,5 5 3 13 7 SSE 1029,5 - 0,0
22.03.2019 02:00:00 10,6 8,0 10 5 27 15 SSE 1029,7 - 0,0
22.03.2019 01:00:00 10,4 8,8 18 10 29 16 SE 1029,8 18 0,0
22.03.2019 00:00:00 10,4 8,5 24 13 31 17 SE 1030,2 - 0,0
21.03.2019 23:00:00 10,4 8,7 12 7 16 9 ESE 1030,8 - 0,0
21.03.2019 22:00:00 10,4 9,5 9 5 - - ENE 1031,3 20 0,0
21.03.2019 21:00:00 10,4 9,3 7 4 16 9 NE 1031,5 - 0,0
21.03.2019 20:00:00 10,6 8,5 14 7 22 12 ENE 1031,6 - 0,0
21.03.2019 19:00:00 10,7 9,0 16 9 22 12 ENE 1031,5 20 0,0
21.03.2019 18:00:00 11,5 8,7 11 6 16 9 ENE 1031,6 - 0,0
21.03.2019 17:00:00 12,3 9,8 10 6 16 9 E 1031,9 - 0,0
21.03.2019 16:00:00 12,6 9,8 9 5 16 8 E 1032,4 18 0,0
21.03.2019 15:00:00 12,7 9,9 10 5 16 9 ENE 1033,0 - 0,0
21.03.2019 14:00:00 13,0 10,2 9 5 - - ENE 1033,9 - 0,0
21.03.2019 13:00:00 13,6 10,4 10 5 17 9 ENE 1034,3 - 0,0
21.03.2019 12:00:00 12,1 10,5 10 5 14 8 NNE 1034,4 - 0,0
21.03.2019 11:00:00 11,6 10,7 7 4 10 5 NE 1034,7 - 0,0
21.03.2019 10:00:00 10,4 9,8 3 2 12 6 ESE 1034,8 15 0,0
21.03.2019 09:00:00 10,3 9,8 9 5 16 9 ESE 1034,6 - 0,0
21.03.2019 08:00:00 10,0 9,1 11 6 13 7 ENE 1034,4 - 0,0
21.03.2019 07:00:00 9,9 9,3 6 4 10 5 ENE 1034,0 15 0,0
21.03.2019 06:00:00 9,8 9,2 6 3 13 7 ENE 1033,7 - 0,0
21.03.2019 05:00:00 9,8 9,2 5 3 8 4 NE 1033,7 - 0,0
21.03.2019 04:00:00 9,8 9,2 5 3 6 3 E 1033,8 15 0,0
21.03.2019 03:00:00 9,8 9,2 4 2 6 3 ENE 1034,2 - 0,0
21.03.2019 02:00:00 9,8 9,5 4 2 8 4 E 1034,6 - 0,0
21.03.2019 01:00:00 9,9 9,7 7 4 8 4 NE 1034,8 15 0,0
21.03.2019 00:00:00 10,0 10,0 2 1 5 3 SSW 1034,9 - 0,0
20.03.2019 23:00:00 10,0 10,0 3 2 7 4 SSW 1034,8 - 0,2
20.03.2019 22:00:00 10,2 10,0 7 4 14 8 W 1034,9 15 0,0
20.03.2019 21:00:00 10,5 10,3 10 5 15 8 SSW 1034,7 - 0,0
20.03.2019 20:00:00 10,6 10,4 12 7 16 9 SSW 1034,3 - 0,0
20.03.2019 19:00:00 10,8 10,5 12 7 20 11 S 1034,2 15 0,0
20.03.2019 18:00:00 11,2 10,3 15 8 24 13 SSW 1034,0 - 0,0
20.03.2019 17:00:00 12,2 11,1 16 8 24 13 SSW 1033,6 - 0,0
20.03.2019 16:00:00 12,5 11,2 16 9 26 14 SSW 1033,8 - 0,0
20.03.2019 15:00:00 12,2 10,9 18 10 25 13 SSW 1034,2 - 0,0
20.03.2019 14:00:00 12,6 10,1 15 8 24 13 SW 1034,5 12 0,0
20.03.2019 13:00:00 11,8 10,9 15 8 23 12 SSW 1034,6 - 0,0
20.03.2019 12:00:00 11,9 11,1 11 6 16 9 SW 1034,6 - 0,0
20.03.2019 11:00:00 11,1 10,5 11 6 18 10 SW 1034,5 - 0,0
20.03.2019 10:00:00 11,0 10,5 7 4 13 7 W 1034,4 12 0,0
20.03.2019 09:00:00 10,7 10,7 9 5 16 8 WSW 1034,0 - 0,0
20.03.2019 08:00:00 10,1 10,1 10 6 17 9 WSW 1033,2 - 0,0
20.03.2019 07:00:00 9,9 9,9 16 9 23 12 SW 1032,6 8 0,2
20.03.2019 06:00:00 10,1 10,1 17 9 24 13 SW 1032,3 - 0,6
20.03.2019 05:00:00 9,9 9,9 15 8 23 12 SW 1032,2 - 0,2
20.03.2019 04:00:00 9,8 9,8 17 9 25 13 SW 1032,4 5 0,0
20.03.2019 03:00:00 9,8 9,8 13 7 29 16 SW 1032,4 - 0,0
20.03.2019 02:00:00 9,7 9,7 16 8 23 12 SW 1032,6 - 0,2
20.03.2019 01:00:00 9,5 9,4 14 8 20 11 SW 1032,8 8 0,0
20.03.2019 00:00:00 9,5 9,4 11 6 18 10 SW 1033,1 - 0,0
19.03.2019 23:00:00 9,2 9,1 11 6 - - SW 1032,9 - 0,0
19.03.2019 22:00:00 9,1 8,5 10 5 19 10 SW 1032,5 18 0,0
19.03.2019 21:00:00 9,4 7,7 13 7 19 10 W 1032,3 - 0,0
19.03.2019 20:00:00 8,4 7,0 11 6 13 7 W 1031,8 - 0,0
19.03.2019 19:00:00 10,3 7,0 9 5 16 9 W 1031,0 20 0,0
19.03.2019 18:00:00 11,4 7,5 13 7 20 11 WNW 1030,5 - 0,0
19.03.2019 17:00:00 11,6 7,7 13 7 22 12 WNW 1030,4 - 0,0
19.03.2019 16:00:00 11,9 8,0 16 9 25 13 WNW 1030,5 18 0,0
19.03.2019 15:00:00 11,5 8,0 16 9 25 13 NW 1030,4 - 0,0
19.03.2019 14:00:00 11,7 8,4 16 9 24 13 WNW 1030,6 - 0,0
19.03.2019 13:00:00 11,5 8,5 13 7 27 15 NW 1030,5 18 0,0
19.03.2019 12:00:00 11,6 8,4 16 9 26 14 NNW 1030,4 - 0,0

tt = Température de l'air
td = dewpoint
ff = Vitesse du vent
fx = gusts
dd = Direction du vent
ppp = reduced air pressure
vv = visibility
rr = Quantités de précipitations

stations d'obs. à proximité